This is the latest recevied weather packets stored in our database for station/object KD7CTY. If no packets are shown the sender has not sent any weather packets the latest 10 day(s).
| Time | Temp. | Humidity | Pressure | Rain* | Wind** | Luminosity | Snow |
|---|---|---|---|---|---|---|---|
| 1777997835 | 12.22° C | 90% | 1014.9 hPa | 0 mm | - | 106 W/m² | - |
| 1777997533 | 12.22° C | 89% | 1015 hPa | 0 mm | - | 96 W/m² | - |
| 1777997230 | 12.22° C | 90% | 1015.1 hPa | 0 mm | - | 92 W/m² | - |
| 1777996928 | 12.22° C | 90% | 1014.9 hPa | 0 mm | - | 89 W/m² | - |
| 1777996624 | 12.22° C | 90% | 1014.9 hPa | 0 mm | - | 89 W/m² | - |
| 1777996320 | 12.22° C | 89% | 1014.7 hPa | 0 mm | - | 89 W/m² | - |
| 1777996016 | 12.22° C | 90% | 1015 hPa | 0 mm | - | 93 W/m² | - |
| 1777995712 | 12.22° C | 90% | 1014.6 hPa | 0 mm | - | 95 W/m² | - |
| 1777995409 | 12.22° C | 89% | 1014.6 hPa | 0 mm | - | 99 W/m² | - |
| 1777995107 | 12.22° C | 90% | 1014.7 hPa | 0 mm | - | 91 W/m² | - |
| 1777994803 | 12.22° C | 90% | 1014.7 hPa | 0 mm | - | 85 W/m² | - |
| 1777994499 | 12.22° C | 90% | 1014.5 hPa | 0 mm | - | 81 W/m² | - |
| 1777994195 | 12.22° C | 90% | 1014.7 hPa | 0 mm | - | 81 W/m² | - |
| 1777993892 | 12.22° C | 91% | 1014.5 hPa | 0 mm | - | 78 W/m² | - |
| 1777993588 | 11.67° C | 91% | 1014.5 hPa | 0 mm | - | 74 W/m² | - |
| 1777993286 | 12.22° C | 91% | 1014.4 hPa | 0 mm | - | 70 W/m² | - |
| 1777992981 | 11.67° C | 91% | 1014.4 hPa | 0 mm | - | 67 W/m² | - |
| 1777992680 | 11.67° C | 91% | 1014.2 hPa | 0 mm | - | 76 W/m² | - |
| 1777992377 | 11.67° C | 92% | 1014.4 hPa | 0 mm | - | 69 W/m² | - |
| 1777992074 | 11.67° C | 92% | 1014.5 hPa | 0 mm | - | 64 W/m² | - |
| 1777991772 | 11.67° C | 92% | 1014.2 hPa | 0 mm | - | 57 W/m² | - |
| 1777991469 | 11.67° C | 92% | 1014.3 hPa | 0 mm | - | 44 W/m² | - |
| 1777991166 | 11.67° C | 93% | 1014.1 hPa | 0 mm | - | 47 W/m² | - |
| 1777990863 | 11.67° C | 93% | 1014.1 hPa | 0 mm | - | 31 W/m² | - |
| 1777990560 | 11.67° C | 93% | 1014 hPa | 0 mm | - | 33 W/m² | - |
* Rain latest hour (hover to see other rain measurements)
** Current wind speed in m/s (hover to see current wind gust speed)